Location: Notre Dame Regional High School Observatory
(37.3056°N, 89.6097°W)
Time: 10:01:38
(UTC-06:00)

Okean-O - Visible Passes

Search period start: 22 January 2018 00:00
Search period end: 01 February 2018 00:00
Orbit: 639 x 641 km, 98.2° (Epoch: 22 January)

Date Brightness Start Highest point End Pass type
(mag) Time Alt. Az. Time Alt. Az. Time Alt. Az.
22 Jan 2.7 05:08:45 10° NNE 05:13:12 78° ESE 05:17:37 10° S visible
22 Jan 6.0 17:43:03 10° WSW 17:44:54 12° W 17:46:47 10° WNW visible
23 Jan 5.8 03:58:25 10° ENE 03:59:53 11° E 04:01:19 10° ESE visible
23 Jan 2.6 05:32:19 10° N 05:36:40 56° WNW 05:40:59 10° SSW visible
24 Jan 5.0 04:20:12 10° NE 04:23:35 21° E 04:26:56 10° SE visible
24 Jan 3.3 05:56:09 10° N 06:00:03 31° WNW 06:03:56 10° SW visible
25 Jan 4.0 04:43:03 10° NNE 04:47:12 38° E 04:51:19 10° SSE visible
25 Jan 4.0 06:20:23 10° NNW 06:23:22 18° WNW 06:26:20 10° WSW visible
26 Jan 2.8 05:06:18 10° NNE 05:10:45 72° ESE 05:15:09 10° S visible
26 Jan 5.9 17:40:15 10° WSW 17:42:25 13° W 17:44:36 10° WNW visible
27 Jan 5.9 03:56:33 10° E 03:57:23 10° E 03:58:12 10° ESE visible
27 Jan 2.6 05:29:50 10° N 05:34:13 61° WNW 05:38:34 10° SSW visible
28 Jan 5.2 04:17:52 10° NE 04:21:05 20° E 04:24:18 10° SE visible
28 Jan 3.2 05:53:38 10° N 05:57:37 33° WNW 06:01:34 10° SW visible
29 Jan 4.2 04:40:39 10° NNE 04:44:44 35° E 04:48:47 10° SSE visible
29 Jan 3.9 06:17:48 10° NNW 06:20:56 19° WNW 06:24:03 10° WSW visible
30 Jan 2.9 05:03:52 10° NNE 05:08:17 66° E 05:12:40 10° S visible
31 Jan 2.5 05:27:21 10° N 05:31:46 66° WNW 05:36:09 10° SSW visible
